Weather History for Watertown, WI

Change the Weather History Date:

Wednesday, January 15, 2014

  Actual Average Record
Temperature  
Mean Temperature 12 °F -  
Max Temperature 16 °F 25 °F 53 °F (1953)
Min Temperature 9 °F 8 °F -31 °F (1963)
Degree Days  
Heating Degree Days 52    
Moisture  
Dew Point 6 °F    
Average Humidity 77    
Maximum Humidity 86    
Minimum Humidity 72    
Precipitation  
Precipitation 0.00 in - - ()
Sea Level Pressure  
Sea Level Pressure 29.93 in    
Wind  
Wind Speed 10 mph (WSW)    
Max Wind Speed 15 mph    
Max Gust Speed 23 mph    
Visibility 10 miles    
Events Snow    
Averages and records for this station are not official NWS values.
T = Trace of Precipitation, MM = Missing Value Source: NWS Daily Summary

Daily Weather History Graph

Daily Weather History Graph

Search for Another Location

Airport:

Trip Planner

Search our weather history database for the weather conditions in past years. The results will help you decide how hot, cold, wet, or windy it might be!

Date:

Astronomy

Jan. 15, 2014 Rise Set
Actual Time 7:23 AM CST 4:45 PM CST
Civil Twilight 6:52 AM CST 5:16 PM CST
Nautical Twilight 6:17 AM CST 5:51 PM CST
Astronomical Twilight 5:43 AM CST 6:26 PM CST
Moon 4:44 PM CST (1/15) 6:38 AM CST (1/15)
Length of Visible Light 10h 24m
Length of Day
9h 21m
Full, 100% of the Moon is Illuminated
Jan 15
Full
Jan 15
Full
Jan 23
Last Quarter
Jan 30
New
Feb 6
First Quarter

Hourly Weather History & Observations

Time (CST) Temp. Windchill Dew Point Humidity Pressure Visibility Wind Dir Wind Speed Gust Speed Precip Events Conditions
12:15 AM 15.8 °F 1.4 °F 12.2 °F 86% 29.87 in 4.0 mi NW 13.8 mph 19.6 mph N/A Snow Light Snow
12:35 AM 14.9 °F 2.3 °F 11.3 °F 86% 29.88 in 5.0 mi WNW 10.4 mph - N/A Snow Light Snow
12:55 AM 14.4 °F 0.9 °F 10.4 °F 84% 29.89 in 7.0 mi NW 11.5 mph 17.3 mph N/A Snow Light Snow
1:15 AM 14.0 °F 0.5 °F 9.9 °F 84% 29.89 in 10.0 mi WNW 11.5 mph - N/A Snow Light Snow
1:35 AM 13.6 °F -1.3 °F 9.3 °F 83% 29.90 in 10.0 mi WNW 13.8 mph 17.3 mph N/A   Clear
1:55 AM 13.1 °F -0.7 °F 9.1 °F 84% 29.91 in 10.0 mi WNW 11.5 mph - N/A   Scattered Clouds
2:15 AM 12.9 °F 1.6 °F 8.4 °F 82% 29.92 in 10.0 mi WNW 8.1 mph - N/A   Clear
2:35 AM 12.4 °F 0.9 °F 7.9 °F 82% 29.92 in 10.0 mi WNW 8.1 mph - N/A   Clear
2:55 AM 12.2 °F 0.7 °F 7.7 °F 82% 29.93 in 10.0 mi WNW 8.1 mph - N/A   Clear
3:15 AM 12.0 °F -0.4 °F 7.5 °F 82% 29.94 in 10.0 mi WNW 9.2 mph - N/A   Clear
3:35 AM 12.0 °F 0.5 °F 7.3 °F 81% 29.95 in 10.0 mi WNW 8.1 mph - N/A   Clear
3:55 AM 12.0 °F 0.5 °F 7.0 °F 80% 29.95 in 10.0 mi WNW 8.1 mph - N/A   Clear
4:15 AM 11.8 °F 0.3 °F 6.8 °F 80% 29.95 in 10.0 mi WNW 8.1 mph - N/A   Clear
4:35 AM 11.3 °F 1.9 °F 6.4 °F 81% 29.96 in 10.0 mi West 5.8 mph - N/A   Clear
4:55 AM 11.3 °F 0.7 °F 6.3 °F 80% 29.96 in 10.0 mi WNW 6.9 mph - N/A   Clear
5:15 AM 11.3 °F -0.4 °F 6.3 °F 80% 29.97 in 10.0 mi WNW 8.1 mph - N/A   Clear
5:35 AM 11.7 °F -0.9 °F 6.4 °F 80% 29.98 in 10.0 mi WNW 9.2 mph - N/A   Clear
5:55 AM 11.3 °F -0.4 °F 5.9 °F 79% 29.99 in 10.0 mi WNW 8.1 mph - N/A   Clear
6:15 AM 11.3 °F -1.3 °F 5.9 °F 79% 29.99 in 10.0 mi WNW 9.2 mph - N/A   Scattered Clouds
6:35 AM 11.3 °F 0.7 °F 5.5 °F 78% 30.00 in 10.0 mi WNW 6.9 mph - N/A   Scattered Clouds
6:55 AM 11.3 °F 0.7 °F 5.0 °F 76% 30.00 in 10.0 mi West 6.9 mph - N/A   Mostly Cloudy
7:15 AM 10.9 °F 1.4 °F 5.2 °F 78% 30.00 in 10.0 mi West 5.8 mph - N/A   Mostly Cloudy
7:35 AM 11.5 °F -0.2 °F 5.9 °F 78% 30.01 in 10.0 mi West 8.1 mph - N/A Snow Light Snow
7:55 AM 12.9 °F 0.7 °F 6.4 °F 75% 30.02 in 10.0 mi WNW 9.2 mph - N/A   Overcast
8:15 AM 13.1 °F 0.1 °F 6.4 °F 75% 30.03 in 10.0 mi WNW 10.4 mph - N/A   Overcast
8:35 AM 13.1 °F 0.9 °F 6.4 °F 75% 30.03 in 10.0 mi West 9.2 mph - N/A   Overcast
8:55 AM 13.1 °F 1.8 °F 6.8 °F 76% 30.03 in 10.0 mi West 8.1 mph - N/A   Overcast
9:15 AM 13.5 °F 0.5 °F 6.6 °F 74% 30.03 in 10.0 mi West 10.4 mph - N/A   Overcast
9:35 AM 13.5 °F 2.2 °F 6.4 °F 74% 30.03 in 10.0 mi WNW 8.1 mph - N/A Snow Light Snow
9:55 AM 13.1 °F 1.8 °F 5.9 °F 73% 30.04 in 10.0 mi WNW 8.1 mph - N/A Snow Light Snow
10:15 AM 13.1 °F 2.8 °F 6.1 °F 74% 30.04 in 10.0 mi WNW 6.9 mph - N/A Snow Light Snow
10:35 AM 12.9 °F 2.6 °F 5.9 °F 74% 30.04 in 10.0 mi WNW 6.9 mph - N/A   Overcast
10:55 AM 12.7 °F 2.4 °F 5.9 °F 74% 30.04 in 10.0 mi West 6.9 mph - N/A   Overcast
11:15 AM 12.7 °F 1.4 °F 5.9 °F 74% 30.03 in 10.0 mi NW 8.1 mph - N/A   Overcast
11:35 AM 12.2 °F 0.7 °F 5.7 °F 75% 30.02 in 10.0 mi WNW 8.1 mph - N/A   Overcast
11:55 AM 12.4 °F 0.0 °F 5.2 °F 73% 30.02 in 10.0 mi West 9.2 mph - N/A   Overcast
12:15 PM 12.7 °F 2.4 °F 5.5 °F 73% 30.02 in 10.0 mi WNW 6.9 mph - N/A   Overcast
12:35 PM 12.4 °F 2.0 °F 5.5 °F 74% 30.00 in 10.0 mi West 6.9 mph - N/A Snow Light Snow
12:55 PM 12.4 °F 2.0 °F 5.7 °F 75% 30.00 in 7.0 mi West 6.9 mph - N/A   Overcast
1:15 PM 12.2 °F 1.7 °F 5.4 °F 74% 29.99 in 10.0 mi WSW 6.9 mph - N/A   Overcast
1:35 PM 12.6 °F 3.4 °F 5.9 °F 75% 29.98 in 10.0 mi West 5.8 mph - N/A Snow Light Snow
1:55 PM 12.4 °F 0.9 °F 5.7 °F 75% 29.97 in 10.0 mi WSW 8.1 mph - N/A   Overcast
2:15 PM 12.2 °F 0.7 °F 5.7 °F 75% 29.97 in 10.0 mi SSW 8.1 mph - N/A   Overcast
2:35 PM 12.0 °F 1.5 °F 5.0 °F 73% 29.97 in 10.0 mi SW 6.9 mph - N/A   Overcast
2:55 PM 11.7 °F 2.3 °F 4.6 °F 73% 29.97 in 10.0 mi SW 5.8 mph - N/A   Mostly Cloudy
3:15 PM 12.0 °F -2.0 °F 5.2 °F 74% 29.97 in 10.0 mi SSW 11.5 mph - N/A   Mostly Cloudy
3:18 PM 12.2 °F -0.2 °F 5.0 °F 73% 29.97 in 10.0 mi SSW 9.2 mph - N/A   Mostly Cloudy
3:35 PM 12.2 °F -0.2 °F 5.5 °F 75% 29.96 in 10.0 mi SSW 9.2 mph - N/A   Mostly Cloudy
3:55 PM 12.2 °F -1.8 °F 4.8 °F 72% 29.96 in 10.0 mi SSW 11.5 mph - N/A   Scattered Clouds
4:15 PM 11.7 °F -1.7 °F 4.6 °F 73% 29.96 in 10.0 mi SW 10.4 mph - N/A   Clear
4:35 PM 10.8 °F -1.1 °F 3.9 °F 74% 29.96 in 10.0 mi SW 8.1 mph - N/A   Clear
4:55 PM 10.2 °F -2.7 °F 3.7 °F 75% 29.96 in 10.0 mi SSW 9.2 mph - N/A   Clear
5:15 PM 9.7 °F -3.3 °F 3.4 °F 76% 29.96 in 10.0 mi SSW 9.2 mph - N/A   Clear
5:35 PM 9.5 °F -1.5 °F 3.2 °F 76% 29.94 in 10.0 mi South 6.9 mph - N/A   Clear
5:55 PM 9.5 °F -2.6 °F 3.2 °F 76% 29.94 in 10.0 mi SSW 8.1 mph - N/A   Clear
6:15 PM 10.0 °F -0.9 °F 3.7 °F 76% 29.92 in 10.0 mi South 6.9 mph - N/A   Clear
6:35 PM 10.2 °F -2.7 °F 3.7 °F 75% 29.91 in 10.0 mi South 9.2 mph - N/A   Clear
6:55 PM 10.2 °F -1.7 °F 3.9 °F 76% 29.89 in 10.0 mi South 8.1 mph - N/A   Scattered Clouds
7:15 PM 10.2 °F -0.6 °F 4.1 °F 76% 29.89 in 10.0 mi South 6.9 mph - N/A   Scattered Clouds
7:35 PM 9.9 °F -1.1 °F 3.9 °F 77% 29.88 in 10.0 mi SSW 6.9 mph - N/A   Clear
7:55 PM 10.4 °F -2.4 °F 4.6 °F 78% 29.87 in 10.0 mi SSW 9.2 mph - N/A   Mostly Cloudy
8:15 PM 11.1 °F -2.4 °F 5.0 °F 76% 29.86 in 10.0 mi SSW 10.4 mph - N/A   Mostly Cloudy
8:35 PM 11.7 °F -3.8 °F 5.5 °F 76% 29.83 in 10.0 mi SSW 13.8 mph 18.4 mph N/A   Mostly Cloudy
8:55 PM 12.2 °F -3.7 °F 5.9 °F 76% 29.82 in 10.0 mi SSW 15.0 mph 20.7 mph N/A   Overcast
9:15 PM 12.2 °F -1.8 °F 6.6 °F 78% 29.82 in 10.0 mi SSW 11.5 mph 18.4 mph N/A   Overcast
9:35 PM 12.6 °F -1.4 °F 7.3 °F 80% 29.80 in 10.0 mi SSW 11.5 mph - N/A   Overcast
9:55 PM 13.1 °F -2.0 °F 7.7 °F 79% 29.78 in 10.0 mi SSW 13.8 mph 21.9 mph N/A   Overcast
10:15 PM 13.6 °F 0.0 °F 8.2 °F 79% 29.76 in 10.0 mi South 11.5 mph 23.0 mph N/A   Overcast
10:35 PM 14.4 °F -0.4 °F 8.8 °F 79% 29.74 in 10.0 mi South 13.8 mph 19.6 mph N/A   Overcast
10:55 PM 14.9 °F 0.3 °F 9.5 °F 79% 29.74 in 10.0 mi South 13.8 mph 20.7 mph N/A   Overcast
11:15 PM 15.8 °F 2.1 °F 10.2 °F 79% 29.74 in 10.0 mi SSW 12.7 mph - N/A   Overcast
11:35 PM 16.3 °F 2.7 °F 10.8 °F 79% 29.70 in 10.0 mi South 12.7 mph 21.9 mph N/A   Overcast
11:55 PM 16.7 °F 2.0 °F 11.7 °F 81% 29.67 in 10.0 mi South 15.0 mph 20.7 mph N/A   Overcast